ION SCV-012 (60573 NORAD) Tracking and Keplerian Element Data

This shows tracking and keplerian element data for the satellite.

Feedback or suggestion? Click here.




ElementValue
Catalog60573
NameION SCV-012
Epoch Orbit849
Epoch Day286.83186316
Epoch Year2024
RAAN1.3459
Inclination97.7415
Eccentricity0.0002818
Argument of Perigee349.3741
Mean Anonmoly10.7418
Mean Motion14.92348571
Decay Rate5.526E-05
L11 60573U 24149DK 24286.83186316 .00005526 00000+0 54569-3 0 9998
L22 60573 97.7415 1.3459 0002818 349.3741 10.7418 14.92348571 8494



Live tracking and technical data element details for ION SCV-012 (NORAD 60573). ION SCV-012 can be tracked NOW for your location showing map with azimuth and elevation plus other details from your city location.







IsCatalogInMostPopularTable: catalog: 60573, numindb: 5
Update: records affected: 1



GetName: 60573 ION SCV-012

Hit Count: updated at: Tue, 03 Dec 2024 03:22:24 GMT